TimeAKST,TemperatureF,Dew PointF,Humidity,Sea Level PressureIn,VisibilityMPH,Wind Direction,Wind SpeedMPH,Gust SpeedMPH,PrecipitationIn,Events,Conditions,WindDirDegrees,DateUTC
12:16 AM,37.4,33.8,87,29.68,10.0,Calm,Calm,-,0.01,,Overcast,0,2013-01-23 09:16:00
12:36 AM,37.4,33.8,87,29.68,9.0,NW,4.6,-,0.02,,Overcast,310,2013-01-23 09:36:00
12:56 AM,35.6,33.8,93,29.68,10.0,Calm,Calm,-,0.02,,Overcast,0,2013-01-23 09:56:00
1:16 AM,35.6,32.0,87,29.68,10.0,WNW,4.6,-,0.01,,Overcast,290,2013-01-23 10:16:00
1:36 AM,35.6,32.0,87,29.68,10.0,West,4.6,-,0.02,,Overcast,270,2013-01-23 10:36:00
1:56 AM,35.6,32.0,87,29.68,10.0,WNW,4.6,-,0.02,,Overcast,290,2013-01-23 10:56:00
2:16 AM,35.6,32.0,87,29.68,10.0,Calm,Calm,-,0.01,,Mostly Cloudy,0,2013-01-23 11:16:00
2:36 AM,37.4,33.8,87,29.69,10.0,Calm,Calm,-,0.02,,Overcast,0,2013-01-23 11:36:00
2:56 AM,37.4,35.6,93,29.68,10.0,Calm,Calm,-,0.03,,Overcast,0,2013-01-23 11:56:00
3:16 AM,37.4,35.6,93,29.68,10.0,ENE,4.6,-,N/A,,Overcast,70,2013-01-23 12:16:00
3:36 AM,39.2,35.6,87,29.68,10.0,East,9.2,-,N/A,,Overcast,90,2013-01-23 12:36:00
3:56 AM,39.2,35.6,87,29.68,10.0,East,10.4,-,N/A,,Overcast,100,2013-01-23 12:56:00
4:16 AM,39.2,35.6,87,29.68,10.0,SE,10.4,-,N/A,,Overcast,130,2013-01-23 13:16:00
4:36 AM,39.2,35.6,87,29.67,10.0,ESE,11.5,-,N/A,,Overcast,110,2013-01-23 13:36:00
4:56 AM,39.2,35.6,87,29.67,10.0,ESE,13.8,-,N/A,,Overcast,110,2013-01-23 13:56:00
5:16 AM,39.2,35.6,87,29.67,10.0,ESE,10.4,-,N/A,,Overcast,120,2013-01-23 14:16:00
5:36 AM,39.2,35.6,87,29.67,10.0,ESE,9.2,-,N/A,,Overcast,120,2013-01-23 14:36:00
5:56 AM,39.2,35.6,87,29.67,10.0,East,8.1,-,N/A,,Overcast,90,2013-01-23 14:56:00
6:16 AM,39.2,35.6,87,29.67,10.0,East,11.5,19.6,N/A,,Overcast,90,2013-01-23 15:16:00
6:36 AM,39.2,35.6,87,29.68,10.0,East,6.9,-,N/A,,Overcast,90,2013-01-23 15:36:00
6:56 AM,39.2,35.6,87,29.68,10.0,ESE,11.5,-,N/A,,Overcast,110,2013-01-23 15:56:00
7:16 AM,39.2,33.8,81,29.69,10.0,South,3.5,-,N/A,,Overcast,170,2013-01-23 16:16:00
7:36 AM,39.2,35.6,87,29.69,10.0,ESE,10.4,-,N/A,,Overcast,110,2013-01-23 16:36:00
7:56 AM,39.2,35.6,87,29.68,10.0,ESE,11.5,-,N/A,,Overcast,110,2013-01-23 16:56:00
8:16 AM,39.2,35.6,87,29.69,10.0,ESE,11.5,-,N/A,,Overcast,120,2013-01-23 17:16:00
8:36 AM,39.2,35.6,87,29.69,10.0,SE,9.2,-,N/A,,Overcast,140,2013-01-23 17:36:00
8:56 AM,39.2,35.6,87,29.70,10.0,ESE,9.2,-,N/A,,Mostly Cloudy,110,2013-01-23 17:56:00
9:16 AM,39.2,35.6,87,29.70,10.0,ESE,6.9,-,N/A,,Mostly Cloudy,120,2013-01-23 18:16:00
9:36 AM,39.2,35.6,87,29.70,10.0,East,10.4,16.1,N/A,,Mostly Cloudy,80,2013-01-23 18:36:00
9:56 AM,39.2,35.6,87,29.70,10.0,ENE,11.5,-,N/A,,Mostly Cloudy,70,2013-01-23 18:56:00
10:16 AM,39.2,35.6,87,29.70,10.0,East,8.1,-,N/A,,Mostly Cloudy,90,2013-01-23 19:16:00
10:36 AM,39.2,35.6,87,29.71,10.0,ENE,11.5,-,N/A,,Mostly Cloudy,70,2013-01-23 19:36:00
10:56 AM,39.2,35.6,87,29.70,10.0,NNE,6.9,-,N/A,,Mostly Cloudy,20,2013-01-23 19:56:00
11:16 AM,41.0,35.6,81,29.71,10.0,WSW,4.6,-,N/A,,Mostly Cloudy,240,2013-01-23 20:16:00
11:36 AM,41.0,35.6,81,29.70,10.0,East,5.8,-,N/A,,Mostly Cloudy,100,2013-01-23 20:36:00
11:56 AM,41.0,35.6,81,29.69,10.0,ESE,10.4,-,N/A,,Mostly Cloudy,110,2013-01-23 20:56:00
12:16 PM,41.0,35.6,81,29.69,10.0,East,9.2,-,N/A,,Mostly Cloudy,90,2013-01-23 21:16:00
12:36 PM,41.0,35.6,81,29.68,10.0,East,11.5,-,N/A,,Mostly Cloudy,90,2013-01-23 21:36:00
12:56 PM,41.0,37.4,87,29.69,10.0,ESE,8.1,-,N/A,,Mostly Cloudy,120,2013-01-23 21:56:00
1:16 PM,41.0,35.6,81,29.69,10.0,East,6.9,-,N/A,,Mostly Cloudy,90,2013-01-23 22:16:00
1:36 PM,41.0,35.6,81,29.68,10.0,East,12.7,-,N/A,,Mostly Cloudy,90,2013-01-23 22:36:00
1:56 PM,41.0,35.6,81,29.69,10.0,Calm,Calm,-,N/A,,Overcast,0,2013-01-23 22:56:00
2:16 PM,42.8,35.6,76,29.69,10.0,NE,3.5,-,N/A,,Overcast,40,2013-01-23 23:16:00
2:36 PM,42.8,35.6,76,29.69,10.0,SE,11.5,-,N/A,,Overcast,140,2013-01-23 23:36:00
2:56 PM,42.8,35.6,76,29.68,10.0,ESE,12.7,-,N/A,,Overcast,120,2013-01-23 23:56:00
3:16 PM,41.0,35.6,81,29.69,10.0,ESE,12.7,17.3,N/A,,Overcast,120,2013-01-24 00:16:00
3:36 PM,42.8,33.8,70,29.69,10.0,SE,11.5,-,N/A,,Overcast,130,2013-01-24 00:36:00
3:56 PM,41.0,33.8,76,29.70,10.0,ESE,10.4,-,N/A,,Overcast,120,2013-01-24 00:56:00
4:16 PM,39.2,35.6,87,29.70,10.0,East,8.1,-,0.01,,Overcast,90,2013-01-24 01:16:00
4:36 PM,41.0,33.8,76,29.70,10.0,ESE,9.2,16.1,0.01,,Overcast,120,2013-01-24 01:36:00
4:56 PM,41.0,35.6,81,29.70,10.0,ESE,9.2,-,0.01,,Overcast,120,2013-01-24 01:56:00
5:16 PM,41.0,33.8,76,29.70,10.0,SE,9.2,18.4,N/A,,Overcast,130,2013-01-24 02:16:00
5:36 PM,41.0,33.8,76,29.70,10.0,ESE,10.4,17.3,N/A,,Overcast,120,2013-01-24 02:36:00
5:56 PM,39.2,33.8,81,29.71,10.0,ESE,11.5,-,0.01,,Overcast,120,2013-01-24 02:56:00
6:16 PM,39.2,33.8,81,29.71,10.0,SE,9.2,-,N/A,,Overcast,140,2013-01-24 03:16:00
6:36 PM,39.2,33.8,81,29.72,10.0,SSE,8.1,-,N/A,,Overcast,150,2013-01-24 03:36:00
6:56 PM,39.2,33.8,81,29.72,10.0,South,6.9,-,0.01,,Overcast,170,2013-01-24 03:56:00
7:16 PM,39.2,33.8,81,29.73,10.0,South,4.6,-,N/A,,Overcast,170,2013-01-24 04:16:00
7:36 PM,39.2,33.8,81,29.74,10.0,Calm,Calm,-,0.01,,Overcast,0,2013-01-24 04:36:00
7:56 PM,39.2,33.8,81,29.74,10.0,Calm,Calm,-,0.02,,Overcast,0,2013-01-24 04:56:00
8:16 PM,39.2,33.8,81,29.75,10.0,Calm,Calm,-,N/A,,Overcast,0,2013-01-24 05:16:00
8:36 PM,39.2,33.8,81,29.76,10.0,Calm,Calm,-,N/A,,Overcast,0,2013-01-24 05:36:00
8:56 PM,39.2,33.8,81,29.76,10.0,Calm,Calm,-,N/A,,Overcast,0,2013-01-24 05:56:00
9:16 PM,39.2,33.8,81,29.76,10.0,NW,4.6,-,0.01,,Overcast,310,2013-01-24 06:16:00
9:36 PM,37.4,33.8,87,29.77,10.0,West,4.6,-,0.01,,Overcast,260,2013-01-24 06:36:00
9:56 PM,39.2,33.8,81,29.77,10.0,Calm,Calm,-,0.01,,Overcast,0,2013-01-24 06:56:00
10:16 PM,39.2,33.8,81,29.78,10.0,Calm,Calm,-,N/A,,Overcast,0,2013-01-24 07:16:00
10:36 PM,39.2,33.8,81,29.79,10.0,Calm,Calm,-,N/A,,Overcast,0,2013-01-24 07:36:00
10:56 PM,39.2,33.8,81,29.79,10.0,Calm,Calm,-,N/A,,Overcast,0,2013-01-24 07:56:00
11:16 PM,39.2,33.8,81,29.80,10.0,NW,3.5,-,N/A,,Overcast,310,2013-01-24 08:16:00
11:36 PM,39.2,33.8,81,29.79,10.0,ENE,11.5,-,N/A,,Overcast,70,2013-01-24 08:36:00
11:56 PM,39.2,33.8,81,29.80,10.0,East,12.7,-,N/A,,Mostly Cloudy,80,2013-01-24 08:56:00